Location: Center Berlin
(42.6609°N, 73.3687°W)
Time: 20:20:55
(UTC+00:00)

Cosmos 1725 Rocket - Pass Details

Date: 10 September 2024
Orbit: 962 x 989 km, 82.9° (Epoch: 14 October)

Event Time Altitude Azimuth Distance (km) Brightness Sun altitude
Rises 23:43:14 0° 191° (S) 3,637 7.0 -6.7°
Reaches altitude 10° 23:45:44 10° 192° (SSW) 2,692 6.3 -7.1°
Maximum altitude 23:51:54 76° 278° (W) 996 4.3 -8.2°
Drops below altitude 10° 23:58:06 10° 5° (N) 2,708 6.5 -9.3°
Sets 00:00:37 0° 7° (N) 3,659 7.1 -9.8°
